Simultaneous Nadir Overpasses (SNOs) Predictions

Prediction of SNOs between LANDSAT-8 and NOAA-19 Satellite Orbit:

Table of predicted SNOs for the next 14.0 days since TLE Epoch: 3/13/2017
Index Date (LANDSAT-8) Time (LANDSAT-8) Lat,Lon (LANDSAT-8) SZA (LANDSAT-8 ) Date (NOAA-19) Time (NOAA-19) Lat,Lon (NOAA-19) SZA (NOAA-19 ) Distance(km) Time Diff (sec)
1 03/14/2017 09:06:00 -76.13,-128.05 101.48 03/14/2017 09:04:50 -76.20,-129.83 101.45 48.21 70
2 03/14/2017 09:55:32 75.82, 38.65 78.18 03/14/2017 09:55:49 75.85, 38.68 78.21 3.55 17
3 03/16/2017 14:39:46 75.92, -32.11 77.42 03/16/2017 14:38:42 75.91, -32.18 77.40 2.30 64
4 03/16/2017 15:29:15 -75.84, 135.29 102.68 03/16/2017 15:29:35 -75.83, 135.36 102.69 2.33 20
5 03/18/2017 20:13:30 -75.90, 64.37 103.49 03/18/2017 20:12:28 -75.89, 64.49 103.49 3.13 62
6 03/18/2017 21:02:57 75.82,-128.19 76.43 03/18/2017 21:03:34 75.85,-128.13 76.46 3.20 37
7 03/21/2017 01:47:11 75.92, 161.02 75.67 03/21/2017 01:46:27 75.92, 160.97 75.66 1.49 44
8 03/21/2017 02:36:40 -75.85, -31.56 104.43 03/21/2017 02:37:20 -75.84, -31.47 104.43 2.74 40
9 03/23/2017 07:20:55 -75.90,-102.49 105.24 03/23/2017 07:20:13 -75.90,-102.36 105.23 3.61 42
10 03/23/2017 08:10:21 75.87, 65.07 74.72 03/23/2017 08:11:19 75.87, 64.97 74.73 2.65 58
11 03/25/2017 12:54:36 75.91, -5.88 73.90 03/25/2017 12:54:11 75.91, -5.80 73.90 1.99 25
12 03/25/2017 13:44:05 -75.84, 161.56 106.19 03/25/2017 13:45:05 -75.85, 161.66 106.17 3.00 60
13 03/27/2017 18:28:19 -75.93,
